User: anonymous   Login
Location: Diebersbach
(48.5163°N, 8.0558°E)
Time: 15:08:16
(UTC+00:00)
Language:

FALCON 9 DEB - Orbit

View from above orbital plane
View from above orbital plane
View from above satellite
View from above satellite

Ground track
Ground track

The orbit data is extracted from the following two-line orbital elements,

1 46084U 20055BK  21268.71657112  .00036320  00000-0  32479-3 0  9995
2 46084  53.0121  65.4616 0010135 217.7425 142.2880 15.67977932 69378
Epoch (UTC): 25 September 2021 17:11:51
Eccentricity: 0.0010135
inclination: 53.0121°
perigee height: 358 km
apogee height: 371 km
right ascension of ascending node: 65.4616°
argument of perigee: 217.7425°
revolutions per day: 15.67977932
mean anomaly at epoch: 142.2880°
orbit number at epoch: 6937

The dashed part of the orbit path shows where the satellite is in the earth's shadow,  

DLR